Flag for Germany Weather past 2 weeks in Geislingen an der Steige, Baden-Württemberg, Germany

Now
58 °F

Overcast.


Feels Like: 58 °F
Forecast: 49 / 63 °F
Wind: 6 mph from Southwest

Location: Stoetten

Current Time: May 29, 2015 at 11:26:46 AM

Latest Report: May 29, 2015 at 11:00 AM


Visibility: 41 mi

Pressure: 29.91 "Hg

Humidity: 68%

Dew point: 48 °F

Location of Geislingen an der SteigeLocation

Historic Weather in Geislingen an der Steige — Graph

°F

Geislingen an der Steige temperature yesterday

Maximum temperature yesterday: 64 °F (at 5:00 PM)
Minimum temperature yesterday: 43 °F (at 12:00 AM)
Average temperature yesterday: 52 °F

Past Weeks' High & Low Weather Summary

 TemperatureHumidityPressure
High67 °F (May 18, 6:00 PM)100% (May 15, 3:00 AM)30.35 "Hg (May 15, 3:00 AM)
Low40 °F (May 20, 1:00 PM)38% (May 22, 5:00 PM)29.70 "Hg (May 18, 8:00 PM)
Average51 °F76%30.06 "Hg
* Reported May 14 10:00 AM — May 29 10:00 AM, Geislingen an der Steige, Weather by CustomWeather, © 2015

Note: Actual official high and low records may vary slightly from our data, if they occured in-between our weather recording intervals... More about our weather records

Advertising

Geislingen an der Steige weather history for previous 24 hours

 ConditionsComfort  
Time TempWeatherWind HumidityBarometerVisibility
10:00 AM
Fri, May 29
58 °FPartly sunny.3 mph67%29.91 "Hg40 mi
9:00 AM57 °FPartly sunny.2 mph71%29.92 "Hg40 mi
8:00 AM55 °FPartly sunny.1 mph72%29.95 "Hg40 mi
7:00 AM49 °FPartly sunny.2 mph87%29.98 "Hg22 mi
6:00 AM49 °FPartly sunny.1 mph86%29.98 "Hg16 mi
5:00 AM51 °FOvercast.2 mph81%29.97 "Hg16 mi
4:00 AM50 °FPassing clouds.3 mph81%29.99 "Hg16 mi
3:00 AM51 °FClear.3 mph78%29.99 "Hg18 mi
11:00 PM
Thu, May 28
56 °FPassing clouds.7 mph61%29.98 "Hg22 mi
10:00 PM53 °FClear.5 mph69%30.00 "Hg19 mi
9:00 PM57 °FOvercast.3 mph63%29.97 "Hg47 mi
8:00 PM58 °FPartly sunny.5 mph61%29.97 "Hg47 mi
7:00 PM62 °FPartly sunny.6 mph50%29.93 "Hg43 mi
6:00 PM63 °FScattered clouds.7 mph44%29.93 "Hg43 mi
5:00 PM64 °FScattered clouds.6 mph45%29.95 "Hg43 mi
4:00 PM63 °FScattered clouds.6 mph52%29.97 "Hg43 mi
3:00 PM61 °FScattered clouds.6 mph55%29.98 "Hg43 mi
2:00 PM59 °FPartly sunny.5 mph59%30.01 "Hg37 mi
1:00 PM57 °FOvercast.3 mph62%30.03 "Hg37 mi
12:00 PM56 °FOvercast.5 mph63%30.06 "Hg37 mi
11:00 AM53 °FOvercast.3 mph65%30.09 "Hg28 mi
Weather by CustomWeather, © 2015

See weather overviewHow to use our weather pages